Home   Weather   Willich   Past weeks

Flag for Germany Past Weather in Willich, North Rhine-Westphalia, Germany — Yesterday and Last 2 Weeks

Now
57 °F

Clear.


Feels Like: 57 °F
Forecast: 55 / 70 °F
Wind: 2 mph from Southeast

Location: Monchengladbach Airport

Current Time: Sep 27, 2016 at 10:43:27 PM

Latest Report: Sep 27, 2016 at 8:20 PM


Visibility: 10 mi

Pressure: 30.27 "Hg

Humidity: 82%

Dew Point: 52 °F

Location of WillichLocation

Past Weather in Willich — Graph

°F

Willich Temperature Yesterday

Maximum temperature yesterday: 68 °F (at 1:20 PM)
Minimum temperature yesterday: 50 °F (at 7:50 AM)
Average temperature yesterday: 62 °F

High & Low Weather Summary for the Past Weeks

 TemperatureHumidityPressure
High91 °F (Sep 13, 4:20 PM)100% (Sep 17, 7:50 AM)30.33 "Hg (Sep 17, 7:50 AM)
Low45 °F (Sep 27, 7:50 AM)29% (Sep 14, 4:20 PM)29.77 "Hg (Sep 15, 4:20 PM)
Average68 °F63%30.07 "Hg
* Reported Sep 12 8:20 PM — Sep 27 8:20 PM, Willich, Weather by CustomWeather, © 2016

Note: Actual official high and low records may vary slightly from our data, if they occured in-between our weather recording intervals... More about our weather records

Advertising

Willich Weather History for the Previous 24 Hours

Scroll right to see more
 ConditionsComfort  
Time TempWeatherWind HumidityBarometerVisibility
8:20 PM
Tue, Sep 27
57 °FClear.2 mph82%30.27 "Hg10 mi
7:50 PM57 °FClear.1 mph88%30.27 "Hg10 mi
7:20 PM61 °FClear.No wind77%30.30 "Hg10 mi
6:50 PM64 °FClear.1 mph64%30.27 "Hg10 mi
6:20 PM70 °FClear.2 mph46%30.27 "Hg10 mi
5:50 PM72 °FClear.3 mph44%30.27 "Hg10 mi
5:20 PM72 °FClear.3 mph44%30.27 "Hg10 mi
4:50 PM72 °FPassing clouds.5 mph44%30.27 "HgN/A
4:20 PM72 °FClear.3 mph41%30.27 "Hg10 mi
3:50 PM72 °FClear.3 mph47%30.30 "Hg10 mi
3:20 PM72 °FClear.5 mph44%30.27 "Hg10 mi
2:50 PM72 °FClear.5 mph47%30.30 "Hg10 mi
2:20 PM70 °FClear.3 mph50%30.30 "Hg10 mi
1:50 PM68 °FClear.5 mph49%30.30 "Hg10 mi
1:20 PM68 °FClear.3 mph53%30.30 "Hg10 mi
12:50 PM66 °FClear.2 mph56%30.30 "Hg10 mi
12:20 PM64 °FClear.3 mph56%30.30 "Hg10 mi
11:50 AM64 °FClear.3 mph64%30.33 "Hg10 mi
11:20 AM64 °FClear.2 mph64%30.30 "Hg10 mi
10:50 AM61 °FClear.2 mph72%30.30 "Hg10 mi
10:20 AM59 °FSunny.2 mph77%30.30 "Hg10 mi
9:50 AM57 °FSunny.2 mph82%30.30 "Hg10 mi
9:20 AM54 °FSunny.1 mph94%30.30 "Hg10 mi
8:50 AM50 °FSunny.1 mph94%30.30 "Hg10 mi
8:20 AM46 °FSunny.1 mph93%30.30 "Hg10 mi
7:50 AM45 °FLight fog.No wind93%30.30 "Hg4 mi
Weather by CustomWeather, © 2016

See weather overviewHow to use our weather pages